Regional Weather Roundup
Issued by NWS Grand Forks, ND

Home | Current Version | Previous Version | Text Only | Print | Product List | Glossary On
Versions: 1 2 3 4 5 6 7 8 9 10 11 12 13 14 15 16 17 18 19 20 21 22 23 24 25 26 27 28 29 30 31 32 33 34 35 36 37 38 39 40 41 42 43 44 45 46 47 48 49 50
000
ASUS43 KFGF 211531
RWRFGF
PRAIRIE TO PINES  WEATHER ROUNDUP
NATIONAL WEATHER SERVICE EASTERN NORTH DAKOTA/GRAND FORKS ND
1000 AM CDT MON APR 21 2014

 **SATELLITE DATA USED TO AUGMENT SKY COVER AT AUTOMATED STATIONS**
 *****  WEATHER ACROSS EASTERN NORTH DAKOTA  *****

CITY           SKY/WX    TMP DP  RH WIND       PRES   REMARKS
GRAND FORKS    MOSUNNY   43  34  70 NW26G33   30.08F
GRAND FRKS AFB MOSUNNY   43  32  65 N21G26    30.10S
DEVILS LAKE    CLOUDY    39  28  65 N16       30.16R
FARGO          LGT RAIN  45  33  63 N26G32    30.09R
WAHPETON ARPT  CLOUDY    45  34  65 N22G29    30.11R
$$

 ***** WEATHER ACROSS CENTRAL AND WESTERN NORTH DAKOTA  *****

CITY           SKY/WX    TMP DP  RH WIND       PRES   REMARKS
BISMARCK       CLOUDY    45  37  73 NW13      30.21S
MINOT          CLOUDY    39  32  76 NW10      30.21R
JAMESTOWN      CLOUDY    42  35  76 N20       30.14R
MINOT AFB      CLOUDY    39  34  81 NW10      30.20S
GARRISON         N/A     40  34  79 N14       30.21R
WILLISTON      CLOUDY    42  35  76 VRB3      30.23S
DICKINSON      SUNNY     49  33  54 NW13      30.20S
HETTINGER      MOSUNNY   52  33  48 NW13      30.22S
$$

 *****  OTHER AIRPORT OBSERVATIONS IN OUR AREA  *****

CITY           SKY/WX    TMP DP  RH WIND       PRES   REMARKS
WALHALLA         N/A     41  36  81 NW18G24   30.13S
GRAFTON AIRPOR FAIR      41  32  70 NW28G35   30.11S
VALLEY CITY AR CLOUDY    43  34  70 NW22G28   30.13S
CANDO          FAIR      41  30  65 N14       30.16S
CAVALIER APRT  FAIR      41  30  65 N21G30    30.12S
GWINNER        CLOUDY    48  37  66 N16G24    30.13R
ROLLA          FAIR      39  32  75 N15G21    30.16R
 ***** THE ABOVE OBSERVATIONS ARE NON NWS ARE NOT QUALITY
       CONTROLLED AND MAY MIS-REPORT RAIN FOR SNOW...
$$

  *****  WEATHER ACROSS NORTHERN MINNESOTA  *****

CITY           SKY/WX    TMP DP  RH WIND       PRES   REMARKS
FLAG ISLAND    CLOUDY    36  30  80 NW20      29.96R
WARROAD        CLOUDY    37  34  87 NW16      30.01R
ROSEAU         CLOUDY    37  32  81 NW17G23   30.03R
HALLOCK          N/A     37  34  87 NW16G25   30.10R
THF RVR FALLS  CLOUDY    37  28  70 NW23G31   30.06R
BAUDETTE       CLOUDY    39  32  76 NW16G30   29.97R
WASKISH        CLOUDY    39  34  81 W15G24    29.97R
CROOKSTON      MOSUNNY   43  34  70 N25G36    30.08R
$$
  *****  WEATHER ACROSS CENTRAL AND WEST MINNESOTA  *****

CITY           SKY/WX    TMP DP  RH WIND       PRES   REMARKS
FOSSTON        PTSUNNY   41  30  65 NW20G29   30.04R
BEMIDJI        CLOUDY    39  32  78 NW14      30.01R
PARK RAPIDS    CLOUDY    47  36  65 NW18      29.99R
ELBOW LAKE     FAIR      48  38  68 N21G32    30.05R
WADENA         MOSUNNY   46  37  71 NW17      30.01R
DETROIT LAKES  CLOUDY    37  34  87 N16       30.07R
MOORHEAD       CLOUDY    45  37  76 N24       30.10S
FERGUS FALLS   CLOUDY    45  34  65 N23G31    30.05R
MORRIS MN      SUNNY     54  37  54 NW23G33   30.02R
STAPLES        SUNNY     52  37  58 NW17G28   29.98R
$$
  *****  WEATHER ELSEWHERE ACROSS MINNESOTA  *****

CITY           SKY/WX    TMP DP  RH WIND       PRES   REMARKS
DULUTH         MOSUNNY   59  34  39 NW9       29.84F
INTRNTL FALLS  CLOUDY    38  32  79 W17G26    29.91R
ELY            SUNNY     55  32  41 W18G24    29.83R
CLOQUET        SUNNY     61  28  29 W17G29    29.85F
WHEATON        SUNNY     54  43  66 NW24      30.09R
BRAINERD       SUNNY     61  35  37 W14       29.94R
HIBBING        SUNNY     57  36  45 W12G21    29.86S
ALEXANDRIA     SUNNY     52  39  61 NW16G28   30.00R
SAINT CLOUD    SUNNY     64  35  34 NW18      29.94S
MINNEAPOLIS    CLOUDY    60  51  72 W10       29.93F
$$

  *****  WEATHER ACROSS SOUTH DAKOTA  *****

CITY           SKY/WX    TMP DP  RH WIND       PRES   REMARKS
SIOUX FALLS    MOSUNNY   64  34  32 N20G26    30.06R
BROOKINGS      NOT AVBL
WATERTOWN      SUNNY     54  35  48 NW22G28   30.07R
HURON          SUNNY     60  33  36 N18G24    30.11S
SISSETON         N/A     52  39  61 N24G36    30.06R
ABERDEEN       SUNNY     52  37  56 NW21      30.13S
MITCHELL       SUNNY     59  33  37 N20       30.13R
PIERRE         SUNNY     56  31  38 N15       30.18R
MOBRIDGE       SUNNY     52  33  48 NW18      30.15S
RAPID CITY     SUNNY     57  25  29 NW6       30.23S
$$

  *****  SOME WEATHER IN NEARBY STATES *****

CITY           SKY/WX    TMP DP  RH WIND       PRES   REMARKS
GLASGOW MT     SUNNY     44  29  55 CALM      30.19F
GREAT FALLS MT SUNNY     50  25  37 S8        30.18F
CHEYENNE WY    SUNNY     48  23  37 S6        30.31S
SCOTTSBLUFF NE SUNNY     53  28  38 W7        30.28R
OMAHA NE       PTSUNNY   65  56  72 N18       29.97S
DES MOINES IA  LGT RAIN  65  57  75 SW9       29.93F
DAVENPORT IA   LGT RAIN  61  56  83 W7        29.95R
CHICAGO IL     CLOUDY    68  44  42 SW8       29.92F
EAU CLAIRE WI  CLOUDY    62  55  77 W9        29.89F
LA CROSSE WI   CLOUDY    60  56  86 S9        29.88F
$$

  *****  SOME NATIONAL WEATHER *****

CITY           SKY/WX    TMP DP  RH WIND       PRES   REMARKS
LA GUARDIA NY  PTSUNNY   53  27  36 NE6       30.18F
RALEIGH NC     MOSUNNY   57  38  48 VRB5      30.16S
ATLANTA GA     PTSUNNY   65  42  43 E8        30.19S
NEW ORLEANS LA MOSUNNY   70  59  68 E3        30.14S
OKLAHOMA CITY  CLOUDY    66  61  82 W6        30.00S
ALBUQUERQUE NM MOSUNNY   59  38  45 N8        30.24S
SALT LAKE CITY MOSUNNY   51  30  44 E6        30.20F
LOS ANGELES CA CLOUDY    59  55  88 CALM      30.07R FOG
BOISE ID       MOSUNNY   52  29  41 SE14      30.12F
SEATTLE WA     CLOUDY    47  41  80 SE8       30.04F
$$

*** WEATHER ACROSS MANITOBA...SASKATCHEWAN AND ONTARIO ***
                ***ONTARIO***

CITY           SKY/WX    TMP DP  RH WIND       PRES   REMARKS
GERALDTON      PTSUNNY   43  32  65 CALM      29.87R
THUNDER BAY    LGT RAIN  36  34  93 E13       29.82F
SIOUX LOOKOUT  DRIZZLE   37  34  87 W16G23    29.75R
TORONTO        PTSUNNY   61  37  41 SE8       29.98F
BIG TROUT LK   CLOUDY    30  27  86 N6        29.93S WCI  24
PICKLE LAKE    CLOUDY    32  28  86 NE10G18   29.80F WCI  24
DRYDEN         CLOUDY    36  32  87 W17G26    29.81R
KENORA         CLOUDY    37  30  75 NW14G22   29.90R
$$
                *** MANITOBA***

CITY           SKY/WX    TMP DP  RH WIND       PRES   REMARKS
BRANDON        MOSUNNY   37  34  87 NW18      30.16S
DAUPHIN        CLOUDY    36  32  87 W10       30.13R
ISLAND LAKE    CLOUDY    32  32 100 N9        30.02S WCI  24
PILOT MOUND      N/A     39  32  75 NW13        N/A
THE PAS        PTSUNNY   36  21  55 S5        30.08R
THOMPSON       MOSUNNY   32  30  93 CALM      30.04F
WINNIPEG       PTSUNNY   37  32  81 NW20      30.10R
LYNN LAKE      SUNNY     39  18  41 NW3       30.02S
CHURCHILL      MOSUNNY   14  12  92 W7        30.09S FOG     WCI   4
GILLAM         CLOUDY    25  25 100 CALM      30.07S
$$
                ***SASKATCHEWAN***

CITY           SKY/WX    TMP DP  RH WIND       PRES   REMARKS
ESTEVAN        PTSUNNY   39  36  87 W8        30.21
KINDERSLEY     MOSUNNY   43  39  87 S5        30.13S
LLOYDMINSTER   MOSUNNY   46  37  71 SW12      30.07S
PRINCE ALBERT  MOSUNNY   39  34  81 W8        30.11R
REGINA         CLOUDY    36  34  93 W8        30.20S
YORKTON        CLOUDY    36  32  87 SW3       30.15R
N. BATTLEFORD  SUNNY     39  37  93 S5        30.14S
LA RONGE       MOSUNNY   41  34  75 SW3       30.08
SASKATOON      FOG       32  32 100 SW12      30.17S VSB 1/4 WCI  23
SWIFT CURRENT  SUNNY     45  34  65 SW7       30.15F
$$
NOTE: THESE ARE AUTOMATED STATIONS WITH LIMITED QUALITY CONTROL
      "FAIR" INDICATES FEW OR NO CLOUDS BELOW 12,000 FEET WITH NO
      SIGNIFICANT WEATHER AND/OR OBSTRUCTIONS TO VISIBILITY.
      SKY/WX - SKY CONDITION AND SIGNIFICANT WEATHER.
      TMP - AIR TEMPERATURE.    DP   - DEWPOINT TEMPERATURE.
      RH  - RELATIVE HUMIDITY.  PRES - PRESSURE.
      HX  - HEAT INDEX.         WCI  - WIND CHILL INDEX.
$



USA.gov is the U.S. government's official web portal to all federal, state and local government web resources and services.